EW7007 Weather Reports


time (UTC)temp
C
wind
direction
speed
KPH
gust
KPH
rain 1hr
cm
rain 24hr
cm
rain mn
cm
humidity
%
barometer
mb
20260507134722 11 246 6.4 14.5 0.00 0.00 0.00 68 1012.9
20260507134224 11 238 4.8 16.1 0.00 0.00 0.00 69 1012.9
20260507133722 10 238 8.0 14.5 0.00 0.00 0.00 70 1013.0
20260507133222 10 233 9.7 16.1 0.00 0.00 0.00 71 1013.0
20260507132724 10 198 6.4 14.5 0.00 0.00 0.00 72 1013.1
20260507132223 10 223 4.8 19.3 0.00 0.00 0.00 74 1013.0
20260507131723 9 227 8.0 14.5 0.00 0.00 0.00 74 1013.0
20260507131224 9 232 9.7 19.3 0.00 0.00 0.00 75 1013.1
20260507130723 8 245 6.4 12.9 0.00 0.00 0.00 76 1013.2
20260507130223 8 234 4.8 12.9 0.00 0.00 0.00 77 1013.2
20260507125724 8 226 6.4 19.3 0.00 0.00 0.00 77 1013.3
20260507125222 8 203 8.0 16.1 0.00 0.00 0.00 78 1013.3
20260507124224 8 242 8.0 14.5 0.00 0.00 0.00 80 1013.2
20260507123724 8 225 8.0 12.9 0.00 0.00 0.00 80 1013.2
20260507123222 7 226 3.2 11.3 0.00 0.00 0.00 82 1013.1
20260507122724 7 214 4.8 9.7 0.00 0.00 0.00 82 1013.2
20260507121723 7 197 4.8 11.3 0.00 0.00 0.00 84 1013.2
20260507120723 6 209 3.2 8.0 0.00 0.00 0.00 84 1013.2
20260507120224 6 220 1.6 4.8 0.00 0.00 0.00 84 1013.3
20260507115724 6 219 1.6 4.8 0.00 0.00 0.00 84 1013.3
20260507115222 6 218 3.2 8.0 0.00 0.00 0.00 84 1013.3
20260507114723 6 233 3.2 4.8 0.00 0.00 0.00 84 1013.4
20260507113720 6 229 3.2 4.8 0.00 0.00 0.00 83 1013.5
20260507113220 6 232 1.6 4.8 0.00 0.00 0.00 83 1013.5
20260507112725 6 228 1.6 4.8 0.00 0.00 0.00 83 1013.4
20260507112221 6 227 3.2 4.8 0.00 0.00 0.00 83 1013.5
20260507111720 6 227 3.2 8.0 0.00 0.00 0.00 82 1013.5
20260507111225 6 227 3.2 8.0 0.00 0.00 0.00 82 1013.4
20260507110720 6 227 1.6 4.8 0.00 0.00 0.00 82 1013.5
20260507105725 6 230 1.6 4.8 0.00 0.00 0.00 81 1013.4
20260507105220 6 230 3.2 8.0 0.00 0.00 0.00 81 1013.4
20260507104719 6 226 3.2 9.7 0.00 0.00 0.00 81 1013.5
20260507104223 6 222 4.8 8.0 0.00 0.00 0.00 80 1013.5
20260507103719 6 199 4.8 9.7 0.00 0.00 0.00 80 1013.5
20260507103220 6 234 4.8 9.7 0.00 0.00 0.00 80 1013.4
20260507102723 6 213 3.2 8.0 0.00 0.00 0.00 79 1013.4
20260507102219 7 210 4.8 11.3 0.00 0.00 0.00 79 1013.5
20260507101720 7 231 4.8 9.7 0.00 0.00 0.00 79 1013.5
20260507101225 7 216 4.8 9.7 0.00 0.00 0.00 78 1013.5
20260507095725 7 239 4.8 9.7 0.00 0.00 0.00 77 1013.6
20260507095220 7 211 4.8 9.7 0.00 0.00 0.00 76 1013.7
20260507094720 7 212 3.2 8.0 0.00 0.00 0.00 76 1013.7
20260507094223 7 222 4.8 12.9 0.00 0.00 0.00 76 1013.7
20260507093720 7 234 3.2 9.7 0.00 0.00 0.00 76 1013.8
20260507093221 7 259 3.2 9.7 0.00 0.00 0.00 76 1013.8
20260507092219 7 232 4.8 9.7 0.00 0.00 0.00 76 1013.8
20260507091720 7 232 3.2 9.7 0.00 0.00 0.00 76 1013.9
20260507091224 7 241 3.2 9.7 0.00 0.00 0.00 76 1013.9
20260507090720 7 216 3.2 8.0 0.00 0.00 0.00 76 1013.9
20260507085725 7 228 1.6 8.0 0.00 0.00 0.00 75 1014.0
20260507084719 7 217 3.2 9.7 0.00 0.00 0.00 75 1014.2
20260507084225 7 221 3.2 8.0 0.00 0.00 0.00 74 1014.3
20260507083221 8 229 1.6 4.8 0.00 0.00 0.00 73 1014.3
20260507082724 8 228 3.2 4.8 0.00 0.00 0.00 73 1014.4
20260507081720 8 223 3.2 8.0 0.00 0.00 0.00 72 1014.5
20260507080220 8 220 3.2 4.8 0.00 0.00 0.00 71 1014.7
20260507075725 8 219 1.6 4.8 0.00 0.00 0.00 70 1014.7
20260507075221 8 225 3.2 8.0 0.00 0.00 0.00 70 1014.8
20260507073222 8 225 4.8 9.7 0.00 0.00 0.00 69 1015.0
20260507072725 8 240 3.2 8.0 0.00 0.00 0.00 68 1015.1
20260507072220 8 250 3.2 4.8 0.00 0.00 0.00 68 1015.1
20260507071221 8 229 3.2 8.0 0.00 0.00 0.00 67 1015.2
20260507070720 8 228 4.8 9.7 0.00 0.00 0.00 66 1015.3
20260507070220 8 227 3.2 4.8 0.00 0.00 0.00 65 1015.3
20260507065722 8 227 3.2 4.8 0.00 0.00 0.00 64 1015.4
20260507065219 8 227 1.6 8.0 0.00 0.00 0.00 64 1015.5
20260507064720 8 235 1.6 4.8 0.00 0.00 0.00 63 1015.5
20260507063720 8 235 1.6 4.8 0.00 0.00 0.00 61 1015.6
20260507063219 9 235 1.6 4.8 0.00 0.00 0.00 60 1015.7
20260507062724 9 235 1.6 4.8 0.00 0.00 0.00 60 1015.7
20260507062220 9 235 1.6 4.8 0.00 0.00 0.00 59 1015.7
20260507061720 9 235 4.8 9.7 0.00 0.00 0.00 58 1015.8
20260507061222 9 213 3.2 4.8 0.00 0.00 0.00 58 1015.8
20260507060719 9 203 4.8 8.0 0.00 0.00 0.00 57 1015.8
20260507055722 9 226 4.8 11.3 0.00 0.00 0.00 55 1015.8
20260507055220 10 208 3.2 4.8 0.00 0.00 0.00 55 1015.8
20260507054720 10 207 1.6 8.0 0.00 0.00 0.00 55 1015.8
20260507054224 10 207 3.2 4.8 0.00 0.00 0.00 55 1015.8
20260507053220 10 224 4.8 8.0 0.00 0.00 0.00 53 1015.8
20260507052724 10 238 4.8 14.5 0.00 0.00 0.00 53 1015.8
20260507051719 10 247 3.2 11.3 0.00 0.00 0.00 51 1015.9
20260507051224 10 233 3.2 11.3 0.00 0.00 0.00 51 1015.9
20260507050720 10 222 4.8 11.3 0.00 0.00 0.00 50 1015.9
20260507050219 10 223 3.2 8.0 0.00 0.00 0.00 49 1016.0
20260507045724 10 230 3.2 16.1 0.00 0.00 0.00 49 1016.0
20260507045220 10 210 4.8 11.3 0.00 0.00 0.00 48 1016.0
20260507044720 10 240 4.8 8.0 0.00 0.00 0.00 48 1016.1
20260507043720 10 202 4.8 11.3 0.00 0.00 0.00 49 1016.1
20260507043220 9 227 3.2 4.8 0.00 0.00 0.00 49 1016.1
20260507042722 9 224 3.2 9.7 0.00 0.00 0.00 50 1016.2
20260507042220 8 239 3.2 4.8 0.00 0.00 0.00 51 1016.2
20260507041720 8 240 1.6 4.8 0.00 0.00 0.00 53 1016.2
20260507041224 8 240 0.0 0.0 0.00 0.00 0.00 53 1016.2
20260507040719 8 240 0.0 0.0 0.00 0.00 0.00 54 1016.2
20260507040219 8 240 0.0 1.6 0.00 0.00 0.00 55 1016.2
20260507035219 8 240 0.0 1.6 0.00 0.00 0.00 54 1016.4
20260507034719 8 240 0.0 1.6 0.00 0.00 0.00 54 1016.4
20260507034221 8 240 0.0 0.0 0.00 0.00 0.00 53 1016.3
20260507033720 8 240 0.0 0.0 0.00 0.00 0.00 51 1016.3
20260507033220 8 240 0.0 0.0 0.00 0.00 0.00 51 1016.3
20260507032722 8 240 0.0 0.0 0.00 0.00 0.00 50 1016.3
20260507032220 9 240 0.0 0.0 0.00 0.00 0.00 50 1016.3
20260507031720 9 240 0.0 0.0 0.00 0.00 0.00 50 1016.3
20260507031224 9 240 0.0 0.0 0.00 0.00 0.00 49 1016.3
20260507030720 10 240 0.0 0.0 0.00 0.00 0.00 48 1016.3
20260507030220 10 240 0.0 0.0 0.00 0.00 0.00 47 1016.4
20260507025724 10 240 0.0 0.0 0.00 0.00 0.00 46 1016.3
20260507025220 10 240 0.0 0.0 0.00 0.00 0.00 45 1016.3
20260507024720 10 240 0.0 0.0 0.00 0.00 0.00 46 1016.3
20260507024224 11 240 0.0 0.0 0.00 0.00 0.00 45 1016.3
20260507023720 11 240 0.0 0.0 0.00 0.00 0.00 44 1016.2
20260507023220 11 240 0.0 0.0 0.00 0.00 0.00 43 1016.2
20260507022722 11 240 0.0 0.0 0.00 0.00 0.00 43 1016.1
20260507022220 12 240 0.0 0.0 0.00 0.00 0.00 41 1016.0
20260507021720 12 240 0.0 0.0 0.00 0.00 0.00 40 1016.0
20260507021221 12 240 0.0 0.0 0.00 0.00 0.00 39 1016.0
20260507020720 12 240 0.0 0.0 0.00 0.00 0.00 38 1016.0
20260507020220 13 240 0.0 0.0 0.00 0.00 0.00 38 1016.0
20260507015723 13 240 0.0 0.0 0.00 0.00 0.00 37 1016.0
20260507015220 13 240 0.0 0.0 0.00 0.00 0.00 36 1015.9
20260507014720 13 240 0.0 0.0 0.00 0.00 0.00 34 1015.9
20260507013720 14 240 0.0 0.0 0.00 0.00 0.00 32 1015.8
20260507013220 14 240 0.0 0.0 0.00 0.00 0.00 31 1015.8
20260507012723 14 240 0.0 0.0 0.00 0.00 0.00 31 1015.8
20260507012220 15 240 0.0 0.0 0.00 0.00 0.00 30 1015.8
20260507010720 15 240 0.0 1.6 0.00 0.00 0.00 29 1015.9
20260507010220 15 240 0.0 4.8 0.00 0.00 0.00 29 1015.9
20260507004720 15 257 1.6 4.8 0.00 0.00 0.00 28 1016.0
20260507004223 15 257 0.0 11.3 0.00 0.00 0.00 27 1016.0
20260507003720 15 242 1.6 3.2 0.00 0.00 0.00 28 1016.0
20260507003220 15 242 1.6 4.8 0.00 0.00 0.00 27 1016.0
20260507002721 15 242 3.2 9.7 0.00 0.00 0.00 28 1016.0
20260507002220 15 262 4.8 9.7 0.00 0.00 0.00 27 1016.1
20260507001720 15 239 1.6 8.0 0.00 0.00 0.00 27 1016.1
20260507001221 16 226 3.2 8.0 0.00 0.00 0.00 27 1016.0
20260507000219 16 309 3.2 4.8 0.00 0.00 0.00 27 1016.1
20260506235723 16 239 1.6 8.0 0.00 0.00 0.00 27 1016.2
20260506235219 16 252 0.0 3.2 0.00 0.00 0.00 26 1016.3
20260506234720 16 250 0.0 4.8 0.00 0.00 0.00 26 1016.3
20260506234223 16 246 1.6 8.0 0.00 0.00 0.00 26 1016.4
20260506233719 17 269 1.6 11.3 0.00 0.00 0.00 25 1016.4
20260506233219 17 259 1.6 4.8 0.00 0.00 0.00 25 1016.4
20260506232721 17 329 3.2 12.9 0.00 0.00 0.00 25 1016.4
20260506231720 17 298 3.2 4.8 0.00 0.00 0.00 24 1016.5
20260506230220 17 245 1.6 11.3 0.00 0.00 0.00 25 1016.4
20260506225723 17 237 0.0 9.7 0.00 0.00 0.00 26 1016.5
20260506225221 17 291 1.6 9.7 0.00 0.00 0.00 26 1016.6
20260506224720 17 305 4.8 9.7 0.00 0.00 0.00 25 1016.6
20260506224223 17 222 3.2 11.3 0.00 0.00 0.00 26 1016.6
20260506223720 17 249 1.6 8.0 0.00 0.00 0.00 25 1016.6
20260506223220 17 250 1.6 4.8 0.00 0.00 0.00 25 1016.7
20260506222723 17 250 3.2 9.7 0.00 0.00 0.00 25 1016.8
20260506222220 17 236 1.6 8.0 0.00 0.00 0.00 24 1016.8
20260506220720 17 325 3.2 4.8 0.00 0.00 0.00 26 1016.9
20260506220220 17 282 3.2 9.7 0.00 0.00 0.00 25 1016.9
20260506215220 18 269 4.8 11.3 0.00 0.00 0.00 24 1017.0
20260506214720 17 275 1.6 4.8 0.00 0.00 0.00 27 1017.0
20260506214220 17 275 1.6 4.8 0.00 0.00 0.00 26 1017.2
20260506213720 17 349 3.2 12.9 0.00 0.00 0.00 25 1017.3
20260506212721 17 351 1.6 4.8 0.00 0.00 0.00 26 1017.3
20260506212220 18 320 1.6 4.8 0.00 0.00 0.00 25 1017.4
20260506211720 17 344 1.6 4.8 0.00 0.00 0.00 25 1017.4
20260506211222 17 344 1.6 8.0 0.00 0.00 0.00 26 1017.5
20260506210720 17 347 3.2 4.8 0.00 0.00 0.00 26 1017.6
20260506210220 17 330 4.8 11.3 0.00 0.00 0.00 25 1017.6
20260506205722 18 319 3.2 9.7 0.00 0.00 0.00 23 1017.7
20260506205220 18 258 4.8 20.9 0.00 0.00 0.00 24 1017.7
20260506204720 18 252 11.3 20.9 0.00 0.00 0.00 24 1017.8
20260506203720 17 323 1.6 4.8 0.00 0.00 0.00 26 1017.9
20260506203220 16 325 3.2 8.0 0.00 0.00 0.00 29 1018.0
20260506202722 16 320 1.6 9.7 0.00 0.00 0.00 27 1018.0
20260506202220 16 343 1.6 8.0 0.00 0.00 0.00 27 1018.1
20260506201719 16 329 3.2 9.7 0.00 0.00 0.00 26 1018.2
20260506201222 16 352 4.8 11.3 0.00 0.00 0.00 26 1018.3
20260506200720 17 293 1.6 4.8 0.00 0.00 0.00 27 1018.3
20260506200220 17 300 1.6 4.8 0.00 0.00 0.00 27 1018.4
20260506195722 17 292 1.6 9.7 0.00 0.00 0.00 26 1018.5
20260506195220 17 296 3.2 8.0 0.00 0.00 0.00 26 1018.5
20260506194720 17 298 3.2 4.8 0.00 0.00 0.00 27 1018.5
20260506194223 17 301 4.8 12.9 0.00 0.00 0.00 26 1018.4
20260506193720 18 254 4.8 12.9 0.00 0.00 0.00 24 1018.4
20260506193220 18 355 3.2 8.0 0.00 0.00 0.00 26 1018.5
20260506192721 17 234 4.8 9.7 0.00 0.00 0.00 25 1018.5
20260506191221 16 290 1.6 4.8 0.00 0.00 0.00 28 1018.5
20260506190719 16 288 4.8 16.1 0.00 0.00 0.00 27 1018.6
20260506190220 16 241 3.2 16.1 0.00 0.00 0.00 27 1018.7
20260506184720 16 319 1.6 9.7 0.00 0.00 0.00 28 1018.9
20260506184222 16 277 1.6 8.0 0.00 0.00 0.00 26 1018.7
20260506183719 16 272 0.0 4.8 0.00 0.00 0.00 26 1018.8
20260506183220 16 353 4.8 12.9 0.00 0.00 0.00 28 1018.9
20260506182722 16 334 3.2 9.7 0.00 0.00 0.00 26 1018.9
20260506182219 17 320 1.6 9.7 0.00 0.00 0.00 26 1019.0
20260506181719 16 335 3.2 11.3 0.00 0.00 0.00 27 1019.1
20260506181222 16 333 3.2 11.3 0.00 0.00 0.00 25 1019.1
20260506180720 16 303 1.6 4.8 0.00 0.00 0.00 27 1019.1
20260506175720 16 332 1.6 11.3 0.00 0.00 0.00 27 1019.2
20260506174720 16 315 3.2 9.7 0.00 0.00 0.00 29 1019.4
20260506174221 16 234 4.8 11.3 0.00 0.00 0.00 28 1019.4
20260506173719 16 242 1.6 4.8 0.00 0.00 0.00 27 1019.5
20260506173220 16 242 3.2 9.7 0.00 0.00 0.00 28 1019.6
20260506172722 15 340 3.2 12.9 0.00 0.00 0.00 30 1019.6
20260506171720 15 245 3.2 11.3 0.00 0.00 0.00 31 1019.8
20260506171221 15 251 4.8 12.9 0.00 0.00 0.00 29 1019.8
20260506170720 15 242 3.2 12.9 0.00 0.00 0.00 29 1019.9
20260506170220 15 246 4.8 11.3 0.00 0.00 0.00 28 1020.0
20260506165722 15 305 1.6 11.3 0.00 0.00 0.00 29 1020.0
20260506165220 15 42 4.8 8.0 0.00 0.00 0.00 30 1020.0
20260506164222 15 351 4.8 9.7 0.00 0.00 0.00 29 1020.0
20260506163219 15 342 3.2 4.8 0.00 0.00 0.00 27 1020.0
20260506162722 15 244 1.6 9.7 0.00 0.00 0.00 29 1020.0
20260506162219 15 339 3.2 4.8 0.00 0.00 0.00 29 1020.1
20260506161720 14 330 3.2 8.0 0.00 0.00 0.00 33 1020.1
20260506161222 13 241 4.8 9.7 0.00 0.00 0.00 31 1020.1
20260506160720 14 341 1.6 4.8 0.00 0.00 0.00 32 1020.1
20260506155720 13 210 1.6 8.0 0.00 0.00 0.00 34 1020.0
20260506155220 13 215 3.2 8.0 0.00 0.00 0.00 33 1020.0
20260506154720 13 10 3.2 11.3 0.00 0.00 0.00 33 1020.1
20260506154220 13 259 3.2 9.7 0.00 0.00 0.00 33 1020.1
20260506153720 13 327 3.2 4.8 0.00 0.00 0.00 34 1020.1
20260506153219 13 282 1.6 4.8 0.00 0.00 0.00 34 1020.1
20260506152720 13 37 1.6 4.8 0.00 0.00 0.00 35 1020.1
20260506152220 12 81 1.6 4.8 0.00 0.00 0.00 36 1020.1
20260506151720 12 73 4.8 9.7 0.00 0.00 0.00 34 1020.1
20260506151220 12 24 1.6 4.8 0.00 0.00 0.00 36 1020.1
20260506150719 12 24 0.0 3.2 0.00 0.00 0.00 36 1020.1
20260506150219 12 24 0.0 3.2 0.00 0.00 0.00 36 1020.1
20260506145720 12 26 3.2 4.8 0.00 0.00 0.00 36 1020.1
20260506145220 11 147 1.6 4.8 0.00 0.00 0.00 37 1020.1
20260506144720 11 149 1.6 4.8 0.00 0.00 0.00 38 1020.1
20260506144220 11 259 0.0 0.0 0.00 0.00 0.00 39 1020.1
20260506143719 11 259 0.0 0.0 0.00 0.00 0.00 40 1020.1
20260506143219 11 259 0.0 1.6 0.00 0.00 0.00 39 1020.2
20260506142722 11 258 0.0 4.8 0.00 0.00 0.00 40 1020.1
20260506142219 11 259 1.6 4.8 0.00 0.00 0.00 38 1020.2
20260506141220 10 259 0.0 1.6 0.00 0.00 0.00 42 1020.1
20260506140719 10 257 1.6 4.8 0.00 0.00 0.00 41 1020.1
20260506140219 10 259 1.6 3.2 0.00 0.00 0.00 41 1020.1
20260506135722 10 259 1.6 4.8 0.00 0.00 0.00 41 1019.9
20260506135220 10 259 0.0 0.0 0.00 0.00 0.00 43 1019.9